Flag for Croatia Weather past 2 weeks in Osijek, Croatia

Now
63 °F

Passing clouds.


Feels Like: 63 °F
Forecast: 66 / 83 °F
Wind: 3 mph from Northeast

Location: Osijek / Cepin

Current Time: Sep 3, 2015 at 7:27:11 AM

Latest Report: Sep 3, 2015 at 7:00 AM


Visibility: N/A

Pressure: 29.95 "Hg

Humidity: 88%

Dew point: 59 °F

Location of OsijekLocation

Historic Weather in Osijek — Graph

°F

Osijek temperature yesterday

Maximum temperature yesterday: 91 °F (at 4:30 PM)
Minimum temperature yesterday: 64 °F (at 6:00 AM)
Average temperature yesterday: 81 °F

Past Weeks' High & Low Weather Summary

 TemperatureHumidityPressure
High99 °F (Aug 31, 4:00 PM)100% (Aug 23, 6:00 AM)30.21 "Hg (Aug 23, 6:00 AM)
Low54 °F (Aug 23, 6:00 AM)25% (Aug 31, 4:00 PM)29.83 "Hg (Sep 1, 5:00 PM)
Average76 °F63%30.04 "Hg
* Reported Aug 18 10:00 PM — Sep 2 10:00 PM, Osijek, Weather by CustomWeather, © 2015

Note: Actual official high and low records may vary slightly from our data, if they occured in-between our weather recording intervals... More about our weather records

Advertising

Osijek weather history for previous 24 hours

 ConditionsComfort  
Time TempWeatherWind HumidityBarometerVisibility
10:00 PM
Wed, Sep 2
77 °FThundershowers. Passing clouds.7 mph74%29.92 "HgN/A
9:30 PM77 °FThundershowers. Overcast.5 mph74%29.89 "HgN/A
9:00 PM79 °FClear.7 mph70%29.89 "Hg10 mi
8:30 PM79 °FClear.7 mph70%29.89 "Hg10 mi
8:00 PM81 °FPassing clouds.7 mph66%29.86 "HgN/A
7:30 PM84 °FSunny.6 mph51%29.86 "Hg10 mi
7:00 PM86 °FSunny.5 mph52%29.86 "Hg10 mi
6:30 PM88 °FSunny.5 mph43%29.83 "Hg10 mi
5:30 PM91 °FPassing clouds.6 mph38%29.86 "HgN/A
5:00 PM91 °FPassing clouds.5 mph38%29.86 "HgN/A
4:30 PM91 °FSunny.3 mph41%29.86 "Hg10 mi
4:00 PM90 °FSunny.5 mph43%29.86 "Hg10 mi
3:30 PM90 °FSunny.5 mph43%29.86 "Hg10 mi
3:00 PM90 °FPassing clouds.7 mph43%29.86 "HgN/A
2:30 PM88 °FPassing clouds.9 mph46%29.89 "HgN/A
2:00 PM88 °FPassing clouds.7 mph46%29.89 "HgN/A
1:30 PM88 °FSunny.6 mph46%29.89 "Hg10 mi
1:00 PM86 °FPassing clouds.8 mph49%29.89 "HgN/A
12:30 PM86 °FPassing clouds.9 mph49%29.89 "HgN/A
12:00 PM84 °FPassing clouds.6 mph51%29.92 "HgN/A
11:30 AM84 °FPassing clouds.8 mph48%29.92 "HgN/A
11:00 AM82 °FPassing clouds.9 mph51%29.92 "HgN/A
10:30 AM79 °FSunny.12 mph54%29.92 "Hg10 mi
10:00 AM79 °FSunny.10 mph54%29.92 "Hg10 mi
9:30 AM79 °FSunny.12 mph51%29.92 "Hg10 mi
9:00 AM77 °FSunny.10 mph54%29.89 "Hg10 mi
8:30 AM70 °FSunny.10 mph69%29.89 "Hg10 mi
8:00 AM68 °FSunny.5 mph73%29.89 "Hg10 mi
7:30 AM64 °FSunny.5 mph83%29.89 "Hg10 mi
7:00 AM64 °FClear.No wind83%29.89 "Hg5 mi
Weather by CustomWeather, © 2015

See weather overviewHow to use our weather pages